Proctor, AR

5:34 AM CST on February 24, 2017 (GMT -0600)
West Memphis Municipal

Weather History for KAWM - March, 2013

Change the Weather History Date:

Wednesday, March 27, 2013

  Actual Average Record
Temperature  
Mean Temperature 42 °F -  
Max Temperature 55 °F 64 °F 81 °F (1991)
Min Temperature 28 °F 44 °F 28 °F (2013)
Degree Days  
Heating Degree Days 24    
Moisture  
Dew Point 29 °F    
Average Humidity 63    
Maximum Humidity 88    
Minimum Humidity 38    
Precipitation  
Precipitation 0.00 in - - ()
Sea Level Pressure  
Sea Level Pressure 30.36 in    
Wind  
Wind Speed 3 mph (SSW)    
Max Wind Speed 8 mph    
Max Gust Speed -    
Visibility 10 miles    
Events      
Averages and records for this station are not official NWS values.
T = Trace of Precipitation, MM = Missing Value Source: NWS Daily Summary

Daily Weather History Graph

Daily Weather History Graph

Search for Another Location

Airport or City:

Trip Planner

Search our weather history database for the weather conditions in past years. The results will help you decide how hot, cold, wet, or windy it might be!

Date:

Astronomy

Mar. 27, 2013 Rise Set
Actual Time 6:54 AM CDT 7:18 PM CDT
Civil Twilight 6:28 AM CDT 7:43 PM CDT
Nautical Twilight 5:59 AM CDT 8:13 PM CDT
Astronomical Twilight 5:28 AM CDT 8:44 PM CDT
Moon 7:59 PM CDT (3/27) 6:47 AM CDT (3/27)
Length of Visible Light 13h 15m
Length of Day
12h 24m
Full, 100% of the Moon is Illuminated
Mar 27
Full
Apr 2
Last Quarter
Apr 10
New
Apr 18
First Quarter
Apr 25
Full

Hourly Weather History & Observations

Time (CDT) Temp. Windchill Dew Point Humidity Pressure Visibility Wind Dir Wind Speed Gust Speed Precip Events Conditions
12:53 AM 33.1 °F 28.7 °F 28.0 °F 82% 30.36 in 10.0 mi South 4.6 mph - N/A   Clear
1:53 AM 30.9 °F - 27.0 °F 85% 30.37 in 10.0 mi Calm Calm - N/A   Clear
2:53 AM 30.0 °F - 27.0 °F 88% 30.36 in 10.0 mi Calm Calm - N/A   Clear
3:53 AM 30.0 °F 26.5 °F 27.0 °F 88% 30.37 in 10.0 mi WSW 3.5 mph - N/A   Clear
4:53 AM 28.9 °F 25.2 °F 25.0 °F 85% 30.36 in 10.0 mi South 3.5 mph - N/A   Clear
5:53 AM 28.0 °F 24.2 °F 25.0 °F 88% 30.37 in 10.0 mi SSW 3.5 mph - N/A   Clear
6:53 AM 28.0 °F - 25.0 °F 88% 30.39 in 10.0 mi Calm Calm - N/A   Clear
7:53 AM 32.0 °F 28.7 °F 28.0 °F 85% 30.40 in 10.0 mi SSE 3.5 mph - N/A   Clear
8:53 AM 39.9 °F 36.7 °F 30.0 °F 68% 30.42 in 10.0 mi SW 4.6 mph - N/A   Clear
9:53 AM 43.0 °F 38.2 °F 28.9 °F 58% 30.43 in 10.0 mi SW 8.1 mph - N/A   Clear
10:53 AM 46.9 °F - 28.9 °F 50% 30.43 in 10.0 mi Variable 5.8 mph - N/A   Clear
11:53 AM 48.9 °F - 30.0 °F 48% 30.43 in 10.0 mi South 4.6 mph - N/A   Clear
12:53 PM 51.1 °F - 30.0 °F 44% 30.40 in 10.0 mi WSW 5.8 mph - N/A   Clear
1:53 PM 54.0 °F - 30.9 °F 41% 30.38 in 10.0 mi SW 4.6 mph - N/A   Clear
2:53 PM 55.0 °F - 30.9 °F 40% 30.35 in 10.0 mi South 8.1 mph - N/A   Clear
3:53 PM 55.0 °F - 30.0 °F 38% 30.32 in 10.0 mi Variable 5.8 mph - N/A   Clear
4:53 PM 55.0 °F - 30.0 °F 38% 30.32 in 10.0 mi South 5.8 mph - N/A   Clear
5:53 PM 54.0 °F - 30.0 °F 40% 30.31 in 10.0 mi South 6.9 mph - N/A   Clear
6:53 PM 51.1 °F - 30.9 °F 46% 30.31 in 10.0 mi SSE 4.6 mph - N/A   Clear
7:53 PM 48.0 °F - 33.1 °F 56% 30.31 in 10.0 mi SSE 3.5 mph - N/A   Clear
8:53 PM 46.9 °F - 34.0 °F 61% 30.30 in 10.0 mi Calm Calm - N/A   Scattered Clouds
9:53 PM 43.0 °F - 32.0 °F 65% 30.30 in 10.0 mi Calm Calm - N/A   Clear
10:53 PM 42.1 °F - 32.0 °F 67% 30.32 in 10.0 mi Calm Calm - N/A   Clear
11:53 PM 42.1 °F - 32.0 °F 67% 30.32 in 10.0 mi Calm Calm - N/A   Clear